Location: Stilling
(56.0622°N, 9.9882°E)
Time: 23:13:58
(UTC+00:00)

ALOS 2 - Pass Details

Date: 13 July 2020
Orbit: 630 x 632 km, 97.9° (Epoch: 14 August)

Event Time Altitude Azimuth Distance (km) Brightness Sun altitude
Exits shadow 23:07:52 17° 195° (SSW) 1,628 4.1 -12.2°
Maximum altitude 23:11:02 43° 262° (W) 895 3.3 -12.2°
Drops below altitude 10° 23:15:15 10° 334° (NNW) 2,028 6.4 -12.3°
Sets 23:17:33 0° 341° (NNW) 2,941 7.6 -12.3°
